TimeCST,TemperatureF,Dew PointF,Humidity,Sea Level PressureIn,VisibilityMPH,Wind Direction,Wind SpeedMPH,Gust SpeedMPH,PrecipitationIn,Events,Conditions,WindDirDegrees,DateUTC
12:25 AM,64.4,59.0,83,29.92,10.0,South,13.8,-,N/A,,Mostly Cloudy,190,2011-11-13 06:25:00
12:53 AM,64.9,59.0,81,29.90,10.0,South,15.0,-,N/A,,Mostly Cloudy,180,2011-11-13 06:53:00
1:05 AM,64.4,59.0,83,29.90,10.0,South,13.8,-,N/A,,Scattered Clouds,180,2011-11-13 07:05:00
1:53 AM,64.0,59.0,84,29.88,10.0,South,12.7,-,N/A,,Scattered Clouds,190,2011-11-13 07:53:00
2:12 AM,64.4,60.8,88,29.90,10.0,South,13.8,-,N/A,,Mostly Cloudy,190,2011-11-13 08:12:00
2:53 AM,64.9,60.1,84,29.88,10.0,South,12.7,-,N/A,,Overcast,190,2011-11-13 08:53:00
3:17 AM,64.4,60.8,88,29.90,10.0,South,11.5,-,N/A,,Mostly Cloudy,190,2011-11-13 09:17:00
3:37 AM,64.4,60.8,88,29.90,10.0,South,11.5,-,N/A,,Overcast,190,2011-11-13 09:37:00
3:53 AM,64.9,60.1,84,29.89,10.0,SSW,13.8,-,N/A,,Overcast,200,2011-11-13 09:53:00
4:53 AM,66.2,62.6,88,29.89,10.0,SSW,16.1,25.3,N/A,,Overcast,200,2011-11-13 10:53:00
5:53 AM,66.9,62.1,84,29.88,10.0,SSW,16.1,24.2,N/A,,Overcast,200,2011-11-13 11:53:00
6:53 AM,68.0,62.1,81,29.89,10.0,SSW,19.6,25.3,N/A,,Overcast,200,2011-11-13 12:53:00
7:53 AM,68.0,63.0,84,29.90,10.0,SSW,16.1,24.2,N/A,,Mostly Cloudy,200,2011-11-13 13:53:00
8:53 AM,71.1,63.0,75,29.91,10.0,SSW,17.3,-,N/A,,Overcast,210,2011-11-13 14:53:00
9:53 AM,73.0,63.0,71,29.91,10.0,SSW,16.1,-,N/A,,Mostly Cloudy,210,2011-11-13 15:53:00
10:51 AM,75.2,62.6,65,29.92,10.0,SW,15.0,25.3,N/A,,Scattered Clouds,220,2011-11-13 16:51:00
10:53 AM,75.9,63.0,64,29.91,10.0,SSW,19.6,25.3,N/A,,Scattered Clouds,210,2011-11-13 16:53:00
11:53 AM,77.0,63.0,62,29.88,10.0,SSW,18.4,27.6,N/A,,Scattered Clouds,200,2011-11-13 17:53:00
12:53 PM,79.0,62.1,56,29.84,10.0,South,18.4,31.1,N/A,,Scattered Clouds,190,2011-11-13 18:53:00
1:53 PM,82.0,62.1,51,29.81,10.0,SSW,16.1,26.5,N/A,,Partly Cloudy,200,2011-11-13 19:53:00
2:53 PM,82.0,61.0,49,29.79,10.0,SSW,18.4,26.5,N/A,,Clear,200,2011-11-13 20:53:00
3:53 PM,82.4,60.8,48,29.81,10.0,SSW,19.6,25.3,N/A,,Partly Cloudy,200,2011-11-13 21:53:00
4:53 PM,79.0,60.1,52,29.80,10.0,South,10.4,-,N/A,,Clear,180,2011-11-13 22:53:00
5:53 PM,75.9,60.1,58,29.80,10.0,South,10.4,-,N/A,,Clear,180,2011-11-13 23:53:00
6:53 PM,75.0,60.1,60,29.82,10.0,South,9.2,-,N/A,,Clear,170,2011-11-14 00:53:00
7:53 PM,71.1,60.1,68,29.83,10.0,South,8.1,-,N/A,,Clear,170,2011-11-14 01:53:00
8:53 PM,73.0,64.0,73,29.84,10.0,South,11.5,-,N/A,,Clear,170,2011-11-14 02:53:00
9:53 PM,72.0,66.0,81,29.85,10.0,South,11.5,-,N/A,,Clear,170,2011-11-14 03:53:00
10:53 PM,72.0,66.0,81,29.85,10.0,South,13.8,-,N/A,,Clear,180,2011-11-14 04:53:00
11:45 PM,71.6,66.2,83,29.87,10.0,South,17.3,-,N/A,,Mostly Cloudy,180,2011-11-14 05:45:00
11:53 PM,71.1,66.0,84,29.85,10.0,South,13.8,-,N/A,,Overcast,180,2011-11-14 05:53:00